| time (UTC) | temp F | wind direction | speed MPH | gust MPH | rain 1hr in | rain 24hr in | rain mn in | humidity % | barometer mb |
| 20260504194526 | 71 | 231 | 1.0 | 9.0 | 0.00 | 0.00 | 0.00 | 33 | 1006.5 |
| 20260504193027 | 72 | 288 | 1.0 | 7.0 | 0.00 | 0.00 | 0.00 | 35 | 1006.3 |
| 20260504191530 | 71 | 154 | 1.0 | 10.0 | 0.00 | 0.00 | 0.00 | 32 | 1006.5 |
| 20260504190028 | 72 | 235 | 2.0 | 8.0 | 0.00 | 0.00 | 0.00 | 31 | 1006.5 |
| 20260504184526 | 70 | 277 | 1.0 | 8.0 | 0.00 | 0.00 | 0.00 | 35 | 1006.7 |
| 20260504183027 | 71 | 107 | 2.0 | 7.0 | 0.00 | 0.00 | 0.00 | 32 | 1006.9 |
| 20260504181531 | 71 | 284 | 2.0 | 9.0 | 0.00 | 0.00 | 0.00 | 31 | 1006.6 |
| 20260504180028 | 71 | 269 | 3.0 | 9.0 | 0.00 | 0.00 | 0.00 | 31 | 1006.8 |
| 20260504174521 | 71 | 251 | 1.0 | 7.0 | 0.00 | 0.00 | 0.00 | 32 | 1006.8 |
| 20260504173018 | 70 | 306 | 2.0 | 10.0 | 0.00 | 0.00 | 0.00 | 32 | 1006.8 |
| 20260504171518 | 69 | 297 | 2.0 | 14.0 | 0.00 | 0.00 | 0.00 | 32 | 1006.9 |
| 20260504081528 | 40 | 271 | 0.0 | 0.0 | 0.00 | 0.00 | 0.00 | 79 | 1009.8 |
| 20260504044535 | 39 | 271 | 0.0 | 0.0 | 0.00 | 0.00 | 0.00 | 70 | 1009.9 |
| 20260504043026 | 39 | 271 | 0.0 | 0.0 | 0.00 | 0.00 | 0.00 | 71 | 1010.0 |
| 20260504041525 | 39 | 271 | 0.0 | 0.0 | 0.00 | 0.00 | 0.00 | 70 | 1009.9 |
| 20260504040032 | 38 | 271 | 0.0 | 0.0 | 0.00 | 0.00 | 0.00 | 72 | 1009.8 |
| 20260504034530 | 38 | 271 | 0.0 | 0.0 | 0.00 | 0.00 | 0.00 | 72 | 1009.8 |
| 20260504033026 | 38 | 271 | 0.0 | 0.0 | 0.00 | 0.00 | 0.00 | 73 | 1009.7 |
| 20260504031529 | 38 | 271 | 0.0 | 0.0 | 0.00 | 0.00 | 0.00 | 73 | 1009.7 |
| 20260504030025 | 38 | 271 | 0.0 | 0.0 | 0.00 | 0.00 | 0.00 | 74 | 1009.7 |
| 20260504024526 | 38 | 271 | 0.0 | 0.0 | 0.00 | 0.00 | 0.00 | 74 | 1009.8 |
| 20260504023025 | 38 | 271 | 0.0 | 0.0 | 0.00 | 0.00 | 0.00 | 74 | 1009.7 |
| 20260504021529 | 38 | 271 | 0.0 | 0.0 | 0.00 | 0.00 | 0.00 | 74 | 1009.8 |
| 20260504020020 | 39 | 271 | 0.0 | 0.0 | 0.00 | 0.00 | 0.00 | 73 | 1009.6 |
| 20260504014528 | 39 | 271 | 0.0 | 0.0 | 0.00 | 0.00 | 0.00 | 71 | 1009.5 |
| 20260504013035 | 40 | 271 | 0.0 | 0.0 | 0.00 | 0.00 | 0.00 | 71 | 1009.4 |
| 20260504011527 | 41 | 271 | 0.0 | 0.0 | 0.00 | 0.00 | 0.00 | 68 | 1009.2 |
| 20260504010029 | 41 | 271 | 0.0 | 0.0 | 0.00 | 0.00 | 0.00 | 67 | 1009.0 |
| 20260504004528 | 42 | 271 | 0.0 | 0.0 | 0.00 | 0.00 | 0.00 | 65 | 1008.9 |
| 20260504003027 | 43 | 271 | 0.0 | 0.0 | 0.00 | 0.00 | 0.00 | 64 | 1008.6 |
| 20260504001520 | 44 | 271 | 0.0 | 0.0 | 0.00 | 0.00 | 0.00 | 62 | 1008.5 |
| 20260504000020 | 45 | 271 | 0.0 | 0.0 | 0.00 | 0.00 | 0.00 | 59 | 1008.3 |
| 20260503234528 | 46 | 271 | 0.0 | 0.0 | 0.00 | 0.01 | 0.00 | 55 | 1008.3 |
| 20260503233030 | 47 | 271 | 0.0 | 1.0 | 0.00 | 0.01 | 0.00 | 56 | 1008.0 |
| 20260503231524 | 48 | 231 | 0.0 | 3.0 | 0.00 | 0.01 | 0.00 | 52 | 1007.9 |
| 20260503230019 | 48 | 149 | 0.0 | 4.0 | 0.00 | 0.01 | 0.00 | 51 | 1007.8 |
| 20260503224518 | 49 | 62 | 0.0 | 6.0 | 0.00 | 0.02 | 0.00 | 49 | 1007.6 |
| 20260503223031 | 49 | 108 | 1.0 | 7.0 | 0.00 | 0.03 | 0.00 | 48 | 1007.6 |
| 20260503221525 | 50 | 165 | 1.0 | 5.0 | 0.00 | 0.07 | 0.00 | 46 | 1007.5 |
| 20260503220020 | 50 | 263 | 1.0 | 8.0 | 0.00 | 0.08 | 0.00 | 47 | 1007.3 |
| 20260503214518 | 50 | 317 | 0.0 | 7.0 | 0.00 | 0.09 | 0.00 | 45 | 1007.2 |
| 20260503213029 | 50 | 132 | 0.0 | 5.0 | 0.00 | 0.11 | 0.00 | 46 | 1007.0 |
| 20260503211533 | 50 | 111 | 3.0 | 9.0 | 0.00 | 0.11 | 0.00 | 45 | 1007.0 |
| 20260503210025 | 51 | 130 | 0.0 | 3.0 | 0.00 | 0.11 | 0.00 | 47 | 1006.7 |
| 20260503204514 | 50 | 208 | 0.0 | 7.0 | 0.00 | 0.11 | 0.00 | 47 | 1006.7 |
| 20260503203029 | 50 | 221 | 1.0 | 8.0 | 0.00 | 0.11 | 0.00 | 46 | 1006.6 |
| 20260503201530 | 50 | 315 | 2.0 | 7.0 | 0.00 | 0.11 | 0.00 | 46 | 1006.4 |
| 20260503200024 | 51 | 282 | 1.0 | 8.0 | 0.00 | 0.11 | 0.00 | 46 | 1006.3 |